Time,TemperatureF,DewpointF,PressureIn,WindDirection,WindDirectionDegrees,WindSpeedMPH,WindSpeedGustMPH,Humidity,HourlyPrecipIn,Conditions,Clouds,dailyrainin,SoftwareType,DateUTC
2013-08-24 00:00:00,59.4,57.4,30.12,East,98,0.0,0.0,93,0.00,,,0.00,Wunderground v.1.15,2013-08-24 04:00:00,
2013-08-24 00:04:00,59.2,57.2,30.12,East,98,0.0,0.0,93,0.00,,,0.00,Wunderground v.1.15,2013-08-24 04:04:00,
2013-08-24 00:10:00,59.1,57.1,30.12,East,98,0.0,0.0,93,0.00,,,0.00,Wunderground v.1.15,2013-08-24 04:10:00,
2013-08-24 00:15:00,58.9,56.9,30.12,East,98,0.0,0.0,93,0.00,,,0.00,Wunderground v.1.15,2013-08-24 04:15:00,
2013-08-24 00:24:00,58.6,56.9,30.13,East,98,0.0,0.0,94,0.00,,,0.00,Wunderground v.1.15,2013-08-24 04:24:00,
2013-08-24 00:30:00,58.6,56.9,30.13,East,98,0.0,0.0,94,0.00,,,0.00,Wunderground v.1.15,2013-08-24 04:30:00,
2013-08-24 00:39:00,58.3,56.6,30.13,East,98,0.0,0.0,94,0.00,,,0.00,Wunderground v.1.15,2013-08-24 04:39:00,
2013-08-24 00:45:00,58.1,56.4,30.13,East,98,0.0,0.0,94,0.00,,,0.00,Wunderground v.1.15,2013-08-24 04:45:00,
2013-08-24 00:55:00,58.0,56.6,30.14,East,98,0.0,0.0,95,0.00,,,0.00,Wunderground v.1.15,2013-08-24 04:55:00,
2013-08-24 01:00:00,57.9,56.5,30.14,East,98,0.0,0.0,95,0.00,,,0.00,Wunderground v.1.15,2013-08-24 05:00:00,
2013-08-24 01:09:00,57.7,56.3,30.14,East,98,0.0,0.0,95,0.00,,,0.00,Wunderground v.1.15,2013-08-24 05:09:00,
2013-08-24 01:15:00,57.7,56.3,30.14,East,98,0.0,0.0,95,0.00,,,0.00,Wunderground v.1.15,2013-08-24 05:15:00,
2013-08-24 01:25:00,57.5,56.1,30.14,East,98,0.0,0.0,95,0.00,,,0.00,Wunderground v.1.15,2013-08-24 05:25:00,
2013-08-24 01:30:00,57.4,56.0,30.14,East,98,0.0,0.0,95,0.00,,,0.00,Wunderground v.1.15,2013-08-24 05:30:00,
2013-08-24 01:40:00,57.2,55.8,30.15,East,98,0.0,0.0,95,0.00,,,0.00,Wunderground v.1.15,2013-08-24 05:40:00,
2013-08-24 01:45:00,57.1,55.7,30.15,East,98,0.0,0.0,95,0.00,,,0.00,Wunderground v.1.15,2013-08-24 05:45:00,
2013-08-24 01:55:00,57.0,55.9,30.15,East,98,0.0,0.0,96,0.00,,,0.00,Wunderground v.1.15,2013-08-24 05:55:00,
2013-08-24 02:00:00,56.9,55.8,30.15,East,98,0.0,0.0,96,0.00,,,0.00,Wunderground v.1.15,2013-08-24 06:00:00,
2013-08-24 02:09:00,56.8,55.7,30.15,East,98,0.0,0.0,96,0.00,,,0.00,Wunderground v.1.15,2013-08-24 06:09:00,
2013-08-24 02:15:00,56.7,55.6,30.16,East,98,0.0,0.0,96,0.00,,,0.00,Wunderground v.1.15,2013-08-24 06:15:00,
2013-08-24 02:24:00,56.5,55.4,30.16,East,98,0.0,0.0,96,0.00,,,0.00,Wunderground v.1.15,2013-08-24 06:24:00,
2013-08-24 02:29:00,56.4,55.3,30.16,East,98,0.0,0.0,96,0.00,,,0.00,Wunderground v.1.15,2013-08-24 06:29:00,
2013-08-24 02:39:00,56.2,55.1,30.17,East,98,0.0,0.0,96,0.00,,,0.00,Wunderground v.1.15,2013-08-24 06:39:00,
2013-08-24 02:45:00,56.1,55.0,30.17,East,98,0.0,0.0,96,0.00,,,0.00,Wunderground v.1.15,2013-08-24 06:45:00,
2013-08-24 02:54:00,56.1,55.0,30.17,East,98,0.0,0.0,96,0.00,,,0.00,Wunderground v.1.15,2013-08-24 06:54:00,
2013-08-24 02:59:00,56.0,55.2,30.17,East,98,0.0,0.0,97,0.00,,,0.00,Wunderground v.1.15,2013-08-24 06:59:00,
2013-08-24 03:09:00,56.0,55.2,30.17,East,98,0.0,0.0,97,0.00,,,0.00,Wunderground v.1.15,2013-08-24 07:09:00,
2013-08-24 03:15:00,56.0,55.2,30.18,East,98,0.0,0.0,97,0.00,,,0.00,Wunderground v.1.15,2013-08-24 07:15:00,
2013-08-24 03:24:00,56.0,55.2,30.18,East,98,0.0,0.0,97,0.00,,,0.00,Wunderground v.1.15,2013-08-24 07:24:00,
2013-08-24 03:30:00,56.0,55.2,30.18,East,98,0.0,0.0,97,0.00,,,0.00,Wunderground v.1.15,2013-08-24 07:30:00,
2013-08-24 03:39:00,55.9,55.1,30.19,East,98,0.0,0.0,97,0.00,,,0.00,Wunderground v.1.15,2013-08-24 07:39:00,
2013-08-24 03:45:00,55.9,55.1,30.19,East,98,0.0,0.0,97,0.00,,,0.00,Wunderground v.1.15,2013-08-24 07:45:00,
2013-08-24 03:54:00,55.9,55.1,30.19,East,98,0.0,0.0,97,0.00,,,0.00,Wunderground v.1.15,2013-08-24 07:54:00,
2013-08-24 04:00:00,56.0,55.2,30.19,East,98,0.0,0.0,97,0.00,,,0.00,Wunderground v.1.15,2013-08-24 08:00:00,
2013-08-24 04:09:00,56.1,55.3,30.20,East,98,0.0,0.0,97,0.00,,,0.00,Wunderground v.1.15,2013-08-24 08:09:00,
2013-08-24 04:15:00,56.1,55.3,30.20,East,98,0.0,0.0,97,0.00,,,0.00,Wunderground v.1.15,2013-08-24 08:15:00,
2013-08-24 04:24:00,55.8,55.0,30.20,East,98,0.0,0.0,97,0.00,,,0.00,Wunderground v.1.15,2013-08-24 08:24:00,
2013-08-24 04:30:00,55.7,54.9,30.20,East,98,0.0,0.0,97,0.00,,,0.00,Wunderground v.1.15,2013-08-24 08:30:00,
2013-08-24 04:39:00,55.7,54.9,30.20,East,98,0.0,0.0,97,0.00,,,0.00,Wunderground v.1.15,2013-08-24 08:39:00,
2013-08-24 04:44:00,55.8,55.0,30.21,East,98,0.0,0.0,97,0.00,,,0.00,Wunderground v.1.15,2013-08-24 08:44:00,
2013-08-24 04:54:00,55.8,55.0,30.21,East,98,0.0,0.0,97,0.00,,,0.00,Wunderground v.1.15,2013-08-24 08:54:00,
2013-08-24 04:59:00,55.8,55.0,30.21,East,98,0.0,0.0,97,0.00,,,0.00,Wunderground v.1.15,2013-08-24 08:59:00,
2013-08-24 05:09:00,55.7,54.9,30.21,East,98,0.0,0.0,97,0.00,,,0.00,Wunderground v.1.15,2013-08-24 09:09:00,
2013-08-24 05:14:00,55.6,54.8,30.22,East,98,0.0,0.0,97,0.00,,,0.00,Wunderground v.1.15,2013-08-24 09:14:00,
2013-08-24 05:24:00,55.4,54.6,30.22,East,98,0.0,0.0,97,0.00,,,0.00,Wunderground v.1.15,2013-08-24 09:24:00,
2013-08-24 05:29:00,55.3,54.5,30.22,East,98,0.0,0.0,97,0.00,,,0.00,Wunderground v.1.15,2013-08-24 09:29:00,
2013-08-24 05:39:00,55.2,54.4,30.23,East,98,0.0,0.0,97,0.00,,,0.00,Wunderground v.1.15,2013-08-24 09:39:00,
2013-08-24 05:44:00,55.2,54.4,30.23,East,98,0.0,0.0,97,0.00,,,0.00,Wunderground v.1.15,2013-08-24 09:44:00,
2013-08-24 05:54:00,55.0,54.2,30.23,East,98,0.0,0.0,97,0.00,,,0.00,Wunderground v.1.15,2013-08-24 09:54:00,
2013-08-24 05:59:00,54.9,54.1,30.23,East,98,0.0,0.0,97,0.00,,,0.00,Wunderground v.1.15,2013-08-24 09:59:00,
2013-08-24 06:09:00,54.7,53.9,30.24,East,98,0.0,0.0,97,0.00,,,0.00,Wunderground v.1.15,2013-08-24 10:09:00,
2013-08-24 06:14:00,54.6,53.8,30.24,East,98,0.0,0.0,97,0.00,,,0.00,Wunderground v.1.15,2013-08-24 10:14:00,
2013-08-24 06:24:00,54.4,53.6,30.24,East,98,0.0,0.0,97,0.00,,,0.00,Wunderground v.1.15,2013-08-24 10:24:00,
2013-08-24 06:29:00,54.3,53.5,30.25,East,98,0.0,0.0,97,0.00,,,0.00,Wunderground v.1.15,2013-08-24 10:29:00,
2013-08-24 06:40:00,54.3,53.5,30.25,East,98,0.0,0.0,97,0.00,,,0.00,Wunderground v.1.15,2013-08-24 10:40:00,
2013-08-24 06:45:00,54.3,53.5,30.25,East,98,0.0,0.0,97,0.00,,,0.00,Wunderground v.1.15,2013-08-24 10:45:00,
2013-08-24 06:55:00,54.2,53.4,30.25,East,98,0.0,0.0,97,0.00,,,0.00,Wunderground v.1.15,2013-08-24 10:55:00,
2013-08-24 07:00:00,54.2,53.6,30.26,East,98,0.0,0.0,98,0.00,,,0.00,Wunderground v.1.15,2013-08-24 11:00:00,
2013-08-24 07:10:00,54.4,53.8,30.26,East,98,0.0,0.0,98,0.00,,,0.00,Wunderground v.1.15,2013-08-24 11:10:00,
2013-08-24 07:15:00,54.6,54.0,30.26,East,98,0.0,0.0,98,0.00,,,0.00,Wunderground v.1.15,2013-08-24 11:15:00,
2013-08-24 07:25:00,55.0,54.4,30.26,East,98,0.0,0.0,98,0.00,,,0.00,Wunderground v.1.15,2013-08-24 11:25:00,
2013-08-24 07:30:00,55.2,54.6,30.27,East,98,0.0,0.0,98,0.00,,,0.00,Wunderground v.1.15,2013-08-24 11:30:00,
2013-08-24 07:40:00,56.0,55.4,30.27,East,98,0.0,0.0,98,0.00,,,0.00,Wunderground v.1.15,2013-08-24 11:40:00,
2013-08-24 07:45:00,56.7,56.1,30.27,East,98,0.0,0.0,98,0.00,,,0.00,Wunderground v.1.15,2013-08-24 11:45:00,
2013-08-24 07:55:00,58.0,57.7,30.28,East,98,0.0,0.0,99,0.00,,,0.00,Wunderground v.1.15,2013-08-24 11:55:00,
2013-08-24 08:00:00,58.7,58.4,30.28,East,98,0.0,0.0,99,0.00,,,0.00,Wunderground v.1.15,2013-08-24 12:00:00,
2013-08-24 08:10:00,59.8,57.5,30.28,NE,56,0.0,0.0,92,0.00,,,0.00,Wunderground v.1.15,2013-08-24 12:10:00,
2013-08-24 08:15:00,60.4,57.5,30.28,NE,56,0.0,0.0,90,0.00,,,0.00,Wunderground v.1.15,2013-08-24 12:15:00,
2013-08-24 08:25:00,61.6,57.7,30.29,NE,56,0.0,0.0,87,0.00,,,0.00,Wunderground v.1.15,2013-08-24 12:25:00,
2013-08-24 08:30:00,62.4,57.8,30.29,NE,56,0.0,0.0,85,0.00,,,0.00,Wunderground v.1.15,2013-08-24 12:30:00,
2013-08-24 08:40:00,63.7,58.1,30.29,East,89,0.0,0.0,82,0.00,,,0.00,Wunderground v.1.15,2013-08-24 12:40:00,
2013-08-24 08:45:00,64.2,58.2,30.29,NE,44,0.0,0.0,81,0.00,,,0.00,Wunderground v.1.15,2013-08-24 12:45:00,
2013-08-24 08:55:00,64.7,57.7,30.29,NE,46,0.0,0.0,78,0.00,,,0.00,Wunderground v.1.15,2013-08-24 12:55:00,
2013-08-24 09:00:00,65.4,57.6,30.29,NNE,21,0.0,0.0,76,0.00,,,0.00,Wunderground v.1.15,2013-08-24 13:00:00,
2013-08-24 09:10:00,66.2,58.0,30.30,East,95,0.0,0.0,75,0.00,,,0.00,Wunderground v.1.15,2013-08-24 13:10:00,
2013-08-24 09:15:00,66.8,57.5,30.30,ESE,115,0.0,0.0,72,0.00,,,0.00,Wunderground v.1.15,2013-08-24 13:15:00,
2013-08-24 09:25:00,67.5,57.0,30.30,NE,36,0.0,0.0,69,0.00,,,0.00,Wunderground v.1.15,2013-08-24 13:25:00,
2013-08-24 09:30:00,68.1,57.5,30.30,NE,45,1.0,2.0,69,0.00,,,0.00,Wunderground v.1.15,2013-08-24 13:30:00,
2013-08-24 09:40:00,68.6,57.6,30.30,NE,56,1.0,1.0,68,0.00,,,0.00,Wunderground v.1.15,2013-08-24 13:40:00,
2013-08-24 09:45:00,69.3,57.5,30.30,NE,49,1.0,1.0,66,0.00,,,0.00,Wunderground v.1.15,2013-08-24 13:45:00,
2013-08-24 09:55:00,69.9,56.3,30.31,East,80,1.0,1.0,62,0.00,,,0.00,Wunderground v.1.15,2013-08-24 13:55:00,
2013-08-24 10:05:00,70.2,56.6,30.31,NNE,31,1.0,3.0,62,0.00,,,0.00,Wunderground v.1.15,2013-08-24 14:05:00,
2013-08-24 10:10:00,70.6,56.9,30.31,NE,46,1.0,3.0,62,0.00,,,0.00,Wunderground v.1.15,2013-08-24 14:10:00,
2013-08-24 10:15:00,71.0,56.9,30.31,ENE,71,1.0,1.0,61,0.00,,,0.00,Wunderground v.1.15,2013-08-24 14:15:00,
2013-08-24 10:25:00,71.1,56.0,30.31,NE,54,2.0,4.0,59,0.00,,,0.00,Wunderground v.1.15,2013-08-24 14:25:00,
2013-08-24 10:30:00,70.5,55.5,30.31,ENE,63,2.0,4.0,59,0.00,,,0.00,Wunderground v.1.15,2013-08-24 14:30:00,
2013-08-24 10:40:00,71.0,55.5,30.30,NE,44,2.0,5.0,58,0.00,,,0.00,Wunderground v.1.15,2013-08-24 14:40:00,
2013-08-24 10:45:00,71.0,56.9,30.30,ESE,123,2.0,2.0,61,0.00,,,0.00,Wunderground v.1.15,2013-08-24 14:45:00,
2013-08-24 10:55:00,71.6,55.6,30.31,NE,51,2.0,2.0,57,0.00,,,0.00,Wunderground v.1.15,2013-08-24 14:55:00,
2013-08-24 11:00:00,71.7,56.1,30.30,NE,55,2.0,2.0,58,0.00,,,0.00,Wunderground v.1.15,2013-08-24 15:00:00,
2013-08-24 11:10:00,72.5,56.9,30.30,WNW,296,1.0,1.0,58,0.00,,,0.00,Wunderground v.1.15,2013-08-24 15:10:00,
2013-08-24 11:15:00,73.4,56.2,30.30,East,84,1.0,1.0,55,0.00,,,0.00,Wunderground v.1.15,2013-08-24 15:15:00,
2013-08-24 11:25:00,73.8,57.6,30.30,East,93,1.0,2.0,57,0.00,,,0.00,Wunderground v.1.15,2013-08-24 15:25:00,
2013-08-24 11:30:00,73.9,55.7,30.30,ESE,108,1.0,1.0,53,0.00,,,0.00,Wunderground v.1.15,2013-08-24 15:30:00,
2013-08-24 11:40:00,74.7,55.9,30.30,SE,130,1.0,1.0,52,0.00,,,0.00,Wunderground v.1.15,2013-08-24 15:40:00,
2013-08-24 11:45:00,75.4,56.5,30.30,NNE,13,1.0,1.0,52,0.00,,,0.00,Wunderground v.1.15,2013-08-24 15:45:00,
2013-08-24 11:55:00,75.6,55.6,30.30,NNW,338,2.0,2.0,50,0.00,,,0.00,Wunderground v.1.15,2013-08-24 15:55:00,
2013-08-24 12:00:00,76.2,56.2,30.30,East,101,1.0,2.0,50,0.00,,,0.00,Wunderground v.1.15,2013-08-24 16:00:00,
2013-08-24 12:10:00,76.1,56.1,30.30,East,94,2.0,2.0,50,0.00,,,0.00,Wunderground v.1.15,2013-08-24 16:10:00,
2013-08-24 12:15:00,75.7,54.6,30.30,NE,45,2.0,3.0,48,0.00,,,0.00,Wunderground v.1.15,2013-08-24 16:15:00,
2013-08-24 12:25:00,75.8,55.3,30.30,SW,236,1.0,2.0,49,0.00,,,0.00,Wunderground v.1.15,2013-08-24 16:25:00,
2013-08-24 12:30:00,75.9,57.5,30.30,East,98,1.0,1.0,53,0.00,,,0.00,Wunderground v.1.15,2013-08-24 16:30:00,
2013-08-24 12:40:00,78.1,56.2,30.29,ESE,105,1.0,1.0,47,0.00,,,0.00,Wunderground v.1.15,2013-08-24 16:40:00,
2013-08-24 12:45:00,77.9,56.0,30.29,NE,45,1.0,1.0,47,0.00,,,0.00,Wunderground v.1.15,2013-08-24 16:45:00,
2013-08-24 12:55:00,78.2,55.7,30.29,SE,129,0.0,1.0,46,0.00,,,0.00,Wunderground v.1.15,2013-08-24 16:55:00,
2013-08-24 13:00:00,79.1,55.9,30.29,SE,129,1.0,1.0,45,0.00,,,0.00,Wunderground v.1.15,2013-08-24 17:00:00,
2013-08-24 13:10:00,78.5,55.4,30.29,ENE,59,1.0,1.0,45,0.00,,,0.00,Wunderground v.1.15,2013-08-24 17:10:00,
2013-08-24 13:15:00,77.9,54.8,30.29,NE,51,1.0,1.0,45,0.00,,,0.00,Wunderground v.1.15,2013-08-24 17:15:00,
2013-08-24 13:25:00,77.7,56.4,30.29,ENE,66,1.0,2.0,48,0.00,,,0.00,Wunderground v.1.15,2013-08-24 17:25:00,
2013-08-24 13:30:00,77.8,54.8,30.29,West,269,1.0,1.0,45,0.00,,,0.00,Wunderground v.1.15,2013-08-24 17:30:00,
2013-08-24 13:40:00,79.1,55.9,30.29,ENE,78,1.0,1.0,45,0.00,,,0.00,Wunderground v.1.15,2013-08-24 17:40:00,
2013-08-24 13:45:00,79.3,55.5,30.29,SE,145,1.0,1.0,44,0.00,,,0.00,Wunderground v.1.15,2013-08-24 17:45:00,
2013-08-24 13:55:00,80.1,56.8,30.29,SE,137,1.0,1.0,45,0.00,,,0.00,Wunderground v.1.15,2013-08-24 17:55:00,
2013-08-24 14:00:00,80.1,55.6,30.29,South,189,1.0,1.0,43,0.00,,,0.00,Wunderground v.1.15,2013-08-24 18:00:00,
2013-08-24 14:10:00,79.2,55.4,30.29,ESE,120,2.0,2.0,44,0.00,,,0.00,Wunderground v.1.15,2013-08-24 18:10:00,
2013-08-24 14:15:00,78.9,55.1,30.29,ESE,102,1.0,2.0,44,0.00,,,0.00,Wunderground v.1.15,2013-08-24 18:15:00,
2013-08-24 14:25:00,78.9,56.4,30.28,NE,49,1.0,1.0,46,0.00,,,0.00,Wunderground v.1.15,2013-08-24 18:25:00,
2013-08-24 14:30:00,78.5,55.4,30.28,NE,50,2.0,2.0,45,0.00,,,0.00,Wunderground v.1.15,2013-08-24 18:30:00,
2013-08-24 14:40:00,78.0,56.7,30.28,ESE,102,2.0,4.0,48,0.00,,,0.00,Wunderground v.1.15,2013-08-24 18:40:00,
2013-08-24 14:45:00,78.0,57.3,30.28,North,360,2.0,4.0,49,0.00,,,0.00,Wunderground v.1.15,2013-08-24 18:45:00,
2013-08-24 14:55:00,77.9,56.0,30.28,South,171,1.0,2.0,47,0.00,,,0.00,Wunderground v.1.15,2013-08-24 18:55:00,
2013-08-24 15:00:00,77.9,54.8,30.28,ENE,71,1.0,1.0,45,0.00,,,0.00,Wunderground v.1.15,2013-08-24 19:00:00,
2013-08-24 15:10:00,77.8,55.4,30.28,NE,43,1.0,1.0,46,0.00,,,0.00,Wunderground v.1.15,2013-08-24 19:10:00,
2013-08-24 15:15:00,77.8,55.4,30.28,NE,50,2.0,2.0,46,0.00,,,0.00,Wunderground v.1.15,2013-08-24 19:15:00,
2013-08-24 15:25:00,77.6,55.2,30.28,SE,124,2.0,2.0,46,0.00,,,0.00,Wunderground v.1.15,2013-08-24 19:25:00,
2013-08-24 15:30:00,77.3,54.9,30.28,SW,230,1.0,2.0,46,0.00,,,0.00,Wunderground v.1.15,2013-08-24 19:30:00,
2013-08-24 15:40:00,76.9,55.7,30.28,ENE,59,1.0,2.0,48,0.00,,,0.00,Wunderground v.1.15,2013-08-24 19:40:00,
2013-08-24 15:45:00,76.9,55.1,30.28,East,99,1.0,2.0,47,0.00,,,0.00,Wunderground v.1.15,2013-08-24 19:45:00,
2013-08-24 15:55:00,77.0,55.8,30.28,East,80,1.0,2.0,48,0.00,,,0.00,Wunderground v.1.15,2013-08-24 19:55:00,
2013-08-24 16:00:00,77.0,55.2,30.28,ENE,67,1.0,1.0,47,0.00,,,0.00,Wunderground v.1.15,2013-08-24 20:00:00,
2013-08-24 16:10:00,77.0,54.6,30.28,ESE,111,1.0,1.0,46,0.00,,,0.00,Wunderground v.1.15,2013-08-24 20:10:00,
2013-08-24 16:20:00,76.7,53.8,30.27,ENE,62,1.0,3.0,45,0.00,,,0.00,Wunderground v.1.15,2013-08-24 20:20:00,
2013-08-24 16:30:00,76.8,53.2,30.28,East,88,1.0,1.0,44,0.00,,,0.00,Wunderground v.1.15,2013-08-24 20:30:00,
2013-08-24 16:40:00,76.9,53.9,30.28,ESE,112,1.0,1.0,45,0.00,,,0.00,Wunderground v.1.15,2013-08-24 20:40:00,
2013-08-24 16:45:00,76.8,54.5,30.28,East,98,1.0,2.0,46,0.00,,,0.00,Wunderground v.1.15,2013-08-24 20:45:00,
2013-08-24 16:55:00,76.7,56.7,30.28,ENE,63,1.0,2.0,50,0.00,,,0.00,Wunderground v.1.15,2013-08-24 20:55:00,
2013-08-24 17:00:00,76.6,54.3,30.27,East,87,1.0,1.0,46,0.00,,,0.00,Wunderground v.1.15,2013-08-24 21:00:00,
2013-08-24 17:10:00,76.6,53.7,30.28,ESE,114,1.0,1.0,45,0.00,,,0.00,Wunderground v.1.15,2013-08-24 21:10:00,
2013-08-24 17:15:00,76.5,53.6,30.28,East,98,1.0,2.0,45,0.00,,,0.00,Wunderground v.1.15,2013-08-24 21:15:00,
2013-08-24 17:25:00,76.5,53.6,30.27,East,101,1.0,1.0,45,0.00,,,0.00,Wunderground v.1.15,2013-08-24 21:25:00,
2013-08-24 17:30:00,76.5,54.2,30.27,ESE,117,1.0,1.0,46,0.00,,,0.00,Wunderground v.1.15,2013-08-24 21:30:00,
2013-08-24 17:35:00,76.4,52.2,30.28,ESE,103,1.0,1.0,43,0.00,,,0.00,Wunderground v.1.15,2013-08-24 21:35:00,
2013-08-24 17:45:00,76.6,53.7,30.28,East,92,0.0,2.0,45,0.00,,,0.00,Wunderground v.1.15,2013-08-24 21:45:00,
2013-08-24 17:55:00,76.3,52.8,30.28,ESE,115,0.0,1.0,44,0.00,,,0.00,Wunderground v.1.15,2013-08-24 21:55:00,
2013-08-24 18:00:00,76.1,52.6,30.28,NE,51,0.0,0.0,44,0.00,,,0.00,Wunderground v.1.15,2013-08-24 22:00:00,
2013-08-24 18:10:00,75.7,52.8,30.28,ESE,102,0.0,3.0,45,0.00,,,0.00,Wunderground v.1.15,2013-08-24 22:10:00,
2013-08-24 18:15:00,75.5,52.7,30.28,ENE,76,1.0,3.0,45,0.00,,,0.00,Wunderground v.1.15,2013-08-24 22:15:00,
2013-08-24 18:25:00,75.2,53.6,30.28,ENE,76,0.0,0.0,47,0.00,,,0.00,Wunderground v.1.15,2013-08-24 22:25:00,
2013-08-24 18:30:00,75.0,55.1,30.28,ENE,76,0.0,0.0,50,0.00,,,0.00,Wunderground v.1.15,2013-08-24 22:30:00,
2013-08-24 18:40:00,74.5,54.6,30.28,ENE,76,0.0,0.0,50,0.00,,,0.00,Wunderground v.1.15,2013-08-24 22:40:00,
2013-08-24 18:45:00,74.2,54.9,30.28,ENE,76,0.0,0.0,51,0.00,,,0.00,Wunderground v.1.15,2013-08-24 22:45:00,
2013-08-24 18:54:00,73.6,55.9,30.28,ENE,76,0.0,0.0,54,0.00,,,0.00,Wunderground v.1.15,2013-08-24 22:54:00,
2013-08-24 19:00:00,73.2,56.6,30.28,ENE,76,0.0,0.0,56,0.00,,,0.00,Wunderground v.1.15,2013-08-24 23:00:00,
2013-08-24 19:10:00,72.4,56.3,30.28,ENE,76,0.0,0.0,57,0.00,,,0.00,Wunderground v.1.15,2013-08-24 23:10:00,
2013-08-24 19:15:00,72.0,56.9,30.28,ENE,76,0.0,0.0,59,0.00,,,0.00,Wunderground v.1.15,2013-08-24 23:15:00,
2013-08-24 19:25:00,71.1,57.4,30.29,ENE,76,0.0,0.0,62,0.00,,,0.00,Wunderground v.1.15,2013-08-24 23:25:00,
2013-08-24 19:30:00,70.7,58.4,30.29,ENE,76,0.0,0.0,65,0.00,,,0.00,Wunderground v.1.15,2013-08-24 23:30:00,
2013-08-24 19:40:00,69.2,58.6,30.29,ENE,76,0.0,0.0,69,0.00,,,0.00,Wunderground v.1.15,2013-08-24 23:40:00,
2013-08-24 19:45:00,68.6,58.8,30.30,ENE,76,0.0,0.0,71,0.00,,,0.00,Wunderground v.1.15,2013-08-24 23:45:00,
2013-08-24 19:54:00,67.5,58.9,30.30,ENE,76,0.0,0.0,74,0.00,,,0.00,Wunderground v.1.15,2013-08-24 23:54:00,
2013-08-24 20:00:00,66.9,58.7,30.30,ENE,76,0.0,0.0,75,0.00,,,0.00,Wunderground v.1.15,2013-08-25 00:00:00,
2013-08-24 20:10:00,65.9,59.2,30.30,ENE,76,0.0,0.0,79,0.00,,,0.00,Wunderground v.1.15,2013-08-25 00:10:00,
2013-08-24 20:15:00,65.4,59.1,30.31,ENE,76,0.0,0.0,80,0.00,,,0.00,Wunderground v.1.15,2013-08-25 00:15:00,
2013-08-24 20:24:00,64.3,59.0,30.31,ENE,76,0.0,0.0,83,0.00,,,0.00,Wunderground v.1.15,2013-08-25 00:24:00,
2013-08-24 20:30:00,63.6,58.7,30.31,ENE,76,0.0,0.0,84,0.00,,,0.00,Wunderground v.1.15,2013-08-25 00:30:00,
2013-08-24 20:39:00,62.9,58.3,30.32,ENE,76,0.0,0.0,85,0.00,,,0.00,Wunderground v.1.15,2013-08-25 00:39:00,
2013-08-24 20:45:00,62.6,58.4,30.32,ENE,76,0.0,0.0,86,0.00,,,0.00,Wunderground v.1.15,2013-08-25 00:45:00,
2013-08-24 20:55:00,62.2,58.3,30.32,ENE,76,0.0,0.0,87,0.00,,,0.00,Wunderground v.1.15,2013-08-25 00:55:00,
2013-08-24 21:00:00,62.0,58.4,30.33,ENE,76,0.0,0.0,88,0.00,,,0.00,Wunderground v.1.15,2013-08-25 01:00:00,
2013-08-24 21:10:00,61.4,57.8,30.33,ENE,76,0.0,0.0,88,0.00,,,0.00,Wunderground v.1.15,2013-08-25 01:10:00,
2013-08-24 21:15:00,61.0,57.7,30.33,ENE,76,0.0,0.0,89,0.00,,,0.00,Wunderground v.1.15,2013-08-25 01:15:00,
2013-08-24 21:24:00,60.5,57.6,30.33,ENE,76,0.0,0.0,90,0.00,,,0.00,Wunderground v.1.15,2013-08-25 01:24:00,
2013-08-24 21:30:00,60.2,57.3,30.33,ENE,76,0.0,0.0,90,0.00,,,0.00,Wunderground v.1.15,2013-08-25 01:30:00,
2013-08-24 21:39:00,59.8,57.2,30.33,ENE,76,0.0,0.0,91,0.00,,,0.00,Wunderground v.1.15,2013-08-25 01:39:00,
2013-08-24 21:45:00,59.6,57.0,30.33,ENE,76,0.0,0.0,91,0.00,,,0.00,Wunderground v.1.15,2013-08-25 01:45:00,
2013-08-24 21:54:00,59.3,56.7,30.33,ENE,76,0.0,0.0,91,0.00,,,0.00,Wunderground v.1.15,2013-08-25 01:54:00,
2013-08-24 22:00:00,59.1,56.5,30.33,ENE,76,0.0,0.0,91,0.00,,,0.00,Wunderground v.1.15,2013-08-25 02:00:00,
2013-08-24 22:10:00,58.7,56.4,30.34,ENE,76,0.0,0.0,92,0.00,,,0.00,Wunderground v.1.15,2013-08-25 02:10:00,
2013-08-24 22:15:00,58.5,56.2,30.34,ENE,76,0.0,0.0,92,0.00,,,0.00,Wunderground v.1.15,2013-08-25 02:15:00,
2013-08-24 22:25:00,58.2,55.9,30.34,ENE,76,0.0,0.0,92,0.00,,,0.00,Wunderground v.1.15,2013-08-25 02:25:00,
2013-08-24 22:30:00,58.0,56.0,30.34,ENE,76,0.0,0.0,93,0.00,,,0.00,Wunderground v.1.15,2013-08-25 02:30:00,
2013-08-24 22:39:00,57.8,55.8,30.34,ENE,76,0.0,0.0,93,0.00,,,0.00,Wunderground v.1.15,2013-08-25 02:39:00,
2013-08-24 22:45:00,57.6,55.6,30.34,ENE,76,0.0,0.0,93,0.00,,,0.00,Wunderground v.1.15,2013-08-25 02:45:00,
2013-08-24 22:54:00,57.2,55.2,30.34,ENE,76,0.0,0.0,93,0.00,,,0.00,Wunderground v.1.15,2013-08-25 02:54:00,
2013-08-24 23:00:00,56.9,54.9,30.34,ENE,76,0.0,0.0,93,0.00,,,0.00,Wunderground v.1.15,2013-08-25 03:00:00,
2013-08-24 23:09:00,56.6,54.6,30.35,ENE,76,0.0,0.0,93,0.00,,,0.00,Wunderground v.1.15,2013-08-25 03:09:00,
2013-08-24 23:15:00,56.4,54.7,30.35,ENE,76,0.0,0.0,94,0.00,,,0.00,Wunderground v.1.15,2013-08-25 03:15:00,
2013-08-24 23:24:00,56.2,54.5,30.35,ENE,76,0.0,0.0,94,0.00,,,0.00,Wunderground v.1.15,2013-08-25 03:24:00,
2013-08-24 23:30:00,56.2,54.5,30.35,ENE,76,0.0,0.0,94,0.00,,,0.00,Wunderground v.1.15,2013-08-25 03:30:00,
2013-08-24 23:39:00,55.9,54.2,30.35,ENE,76,0.0,0.0,94,0.00,,,0.00,Wunderground v.1.15,2013-08-25 03:39:00,
2013-08-24 23:45:00,55.8,54.4,30.35,ENE,76,0.0,0.0,95,0.00,,,0.00,Wunderground v.1.15,2013-08-25 03:45:00,
2013-08-24 23:54:00,55.6,54.2,30.35,ENE,76,0.0,0.0,95,0.00,,,0.00,Wunderground v.1.15,2013-08-25 03:54:00,